Tracking 29487 objects as of 12-Sep-2024
HD Live streaming from Space Station
objects crossing your sky now

FENGYUN 1C DEB

Track FENGYUN 1C DEB now!
10-day predictions


NORAD ID: 37079
Int'l Code: 1999-025EFP
Perigee: 756.7 km
Apogee: 779.8 km
Inclination: 98.8 °
Period: 100.1 minutes
Semi major axis: 7139 km
RCS: 0.0038 m2 (small)
Launch date: May 10, 1999
Source: People's Republic of China (PRC)
Launch site: Taiyaun Space Center, China (TSC)

Note: This is SATELLITE DEBRIS
Your satellite tracking list
Your tracking list is empty




NASA's NSSDC Master Catalog

Two Line Element Set (TLE):
1 37079U 99025EFP 24255.56467830  .00026833  00000-0  86256-2 0  9999
2 37079  98.8487   1.1878 0016189  74.2496 286.0475 14.39207142809309
Source of the keplerian elements: AFSPC